This is the latest recevied weather packets stored in our database for station/object N4CRH-13. If no packets are shown the sender has not sent any weather packets the latest 10 day(s).
| Time | Temp. | Humidity | Pressure | Rain* | Wind** | Luminosity | Snow |
|---|---|---|---|---|---|---|---|
| 1777809381 | 6.11° C | 49% | 1296.4 hPa | 0 mm | - | 2 W/m² | - |
| 1777809079 | 5.56° C | 48% | 1296.4 hPa | 0 mm | - | 1 W/m² | - |
| 1777808776 | 6.11° C | 44% | 1296.4 hPa | 0 mm | - | 0 W/m² | - |
| 1777808473 | 6.11° C | 45% | 1296.3 hPa | 0 mm | - | 0 W/m² | - |
| 1777808171 | 6.67° C | 46% | 1296.4 hPa | 0 mm | - | 0 W/m² | - |
| 1777807868 | 6.11° C | 45% | 1296.2 hPa | 0 mm | - | 0 W/m² | - |
| 1777807566 | 6.67° C | 44% | 1296 hPa | 0 mm | - | 0 W/m² | - |
| 1777807262 | 6.67° C | 42% | 1296 hPa | 0 mm | - | 0 W/m² | - |
| 1777806958 | 7.78° C | 42% | 1296.4 hPa | 0 mm | - | 0 W/m² | - |
| 1777806655 | 8.89° C | 36% | 1296.2 hPa | 0 mm | - | 0 W/m² | - |
| 1777806350 | 8.89° C | 36% | 1296.3 hPa | 0 mm | - | 0 W/m² | - |
| 1777806048 | 9.44° C | 38% | 1296.3 hPa | 0 mm | - | 0 W/m² | - |
| 1777805744 | 10° C | 35% | 1296.2 hPa | 0 mm | - | 0 W/m² | - |
| 1777805442 | 8.89° C | 36% | 1296.2 hPa | 0 mm | - | 0 W/m² | - |
| 1777805140 | 9.44° C | 35% | 1296.3 hPa | 0 mm | - | 0 W/m² | - |
| 1777804837 | 10° C | 34% | 1295.9 hPa | 0 mm | - | 0 W/m² | - |
| 1777804535 | 9.44° C | 34% | 1296.3 hPa | 0 mm | - | 0 W/m² | - |
| 1777804232 | 9.44° C | 34% | 1296.3 hPa | 0 mm | - | 0 W/m² | - |
| 1777803929 | 10° C | 34% | 1296.2 hPa | 0 mm | - | 0 W/m² | - |
| 1777803626 | 10.56° C | 32% | 1296.3 hPa | 0 mm | - | 0 W/m² | - |
| 1777803322 | 11.11° C | 31% | 1296.2 hPa | 0 mm | - | 0 W/m² | - |
| 1777803020 | 11.11° C | 30% | 1296.5 hPa | 0 mm | - | 0 W/m² | - |
| 1777802717 | 11.67° C | 30% | 1296.5 hPa | 0 mm | - | 0 W/m² | - |
| 1777802415 | 11.11° C | 30% | 1296.4 hPa | 0 mm | - | 0 W/m² | - |
| 1777802113 | 11.11° C | 30% | 1296.5 hPa | 0 mm | - | 0 W/m² | - |
* Rain latest hour (hover to see other rain measurements)
** Current wind speed in m/s (hover to see current wind gust speed)